Data for 11/25/2017

Time Sea-Level Adjusted Pressure Absolute Pressure Temperature Relative Humidity Dew Point   
(mb) (inHg) (mb) (inHg) (C) (F) (%) (C) (F)
00:05 1020 30.12 850 25.1 0.4 32.8 55 -7.6 18.4
00:10 1020 30.12 849 25.07 0.4 32.8 55 -7.6 18.3
00:15 1020 30.12 849 25.07 0.6 33 53 -7.9 17.8
00:20 1020 30.12 849 25.07 0.5 32.9 52 -8.2 17.2
00:25 1020 30.12 849 25.07 0.4 32.8 52 -8.3 17
00:30 1020 30.12 849 25.07 0.6 33.1 53 -8 17.6
00:35 1020 30.12 849 25.07 1 33.7 51 -8 17.6
00:40 1020 30.12 849 25.07 1.1 33.9 53 -7.6 18.4
00:45 1020 30.12 849 25.07 0.8 33.4 53 -7.7 18.2
00:50 1020 30.12 849 25.07 0.6 33.1 54 -7.7 18.1
00:55 1020 30.12 849 25.07 0.8 33.4 55 -7.3 18.9
01:00 1020 30.12 849 25.07 0.8 33.5 55 -7.3 18.9
01:05 1020 30.12 849 25.07 0.7 33.2 56 -7.2 19
01:10 1020 30.12 849 25.07 0.7 33.2 57 -7 19.5
01:15 1020 30.12 849 25.07 0.6 33.1 58 -6.8 19.8
01:20 1020 30.12 849 25.07 0.5 32.8 58 -7 19.4
01:25 1020 30.12 849 25.07 0.2 32.3 59 -6.9 19.6
01:30 1020 30.12 849 25.07 0.3 32.5 59 -6.9 19.6
01:35 1020 30.12 849 25.07 0.3 32.6 58 -7 19.5
01:40 1020 30.12 849 25.07 0.3 32.6 57 -7.2 19
01:45 1020 30.12 849 25.07 0.3 32.6 58 -7 19.4
01:50 1020 30.12 849 25.07 0.2 32.4 58 -7 19.3
01:55 1020 30.12 849 25.07 0.2 32.4 57 -7.3 18.9
02:00 1020 30.12 849 25.07 0.2 32.4 58 -7.1 19.2
02:05 1020 30.12 849 25.07 -0.1 31.9 59 -7.2 19.1
02:10 1020 30.12 850 25.1 -0.3 31.4 59 -7.3 18.9
02:15 1020 30.12 850 25.1 -0.6 30.9 60 -7.5 18.5
02:20 1021 30.15 850 25.1 -0.5 31 58 -7.8 17.9
02:25 1021 30.15 850 25.1 -0.3 31.5 56 -7.9 17.7
02:30 1021 30.15 850 25.1 -0.3 31.5 56 -8 17.6
02:35 1021 30.15 850 25.1 -0.3 31.5 54 -8.5 16.6
02:40 1021 30.15 850 25.1 -0.3 31.5 55 -8.2 17.3
02:45 1021 30.15 850 25.1 -0.2 31.7 60 -7 19.3
02:50 1021 30.15 850 25.1 0.1 32.2 57 -7.3 18.8
02:55 1021 30.15 850 25.1 0.4 32.7 56 -7.4 18.6
03:00 1021 30.15 850 25.1 0.4 32.8 57 -7.1 19.2
03:05 1021 30.15 850 25.1 0.3 32.5 58 -7 19.5
03:10 1021 30.15 850 25.1 0.2 32.4 60 -6.6 20.1
03:15 1021 30.15 850 25.1 -0 31.9 59 -7.1 19.2
03:20 1021 30.15 850 25.1 0.1 32.2 60 -6.9 19.7
03:25 1021 30.15 850 25.1 -0.2 31.6 60 -7 19.4
03:30 1021 30.15 851 25.13 -0.7 30.8 62 -7.1 19.1
03:35 1021 30.15 851 25.13 -1.2 29.8 64 -7.1 19.2
03:40 1021 30.15 851 25.13 -1.6 29.1 64 -7.5 18.5
03:45 1021 30.15 851 25.13 -1.5 29.4 64 -7.5 18.6
03:50 1021 30.15 851 25.13 -1.2 29.9 62 -7.6 18.3
03:55 1021 30.15 851 25.13 -1.1 30.1 60 -7.8 18
04:00 1022 30.18 851 25.13 -1 30.3 59 -7.9 17.8
04:05 1022 30.18 851 25.13 -0.9 30.4 57 -8.3 17.1
04:10 1022 30.18 851 25.13 -1.1 30.1 58 -8.3 17.1
04:15 1022 30.18 851 25.13 -1.2 29.8 57 -8.7 16.4
04:20 1022 30.18 851 25.13 -0.9 30.3 55 -8.9 16
04:25 1022 30.18 851 25.13 -0.3 31.4 54 -8.4 16.8
04:30 1022 30.18 851 25.13 -0.4 31.4 59 -7.4 18.7
04:35 1022 30.18 851 25.13 -0.8 30.5 62 -7.2 19
04:40 1022 30.18 851 25.13 -1 30.2 63 -7.2 19.1
04:45 1022 30.18 851 25.13 -0.8 30.5 61 -7.5 18.5
04:50 1022 30.18 851 25.13 -0.7 30.7 61 -7.3 18.8
04:55 1022 30.18 851 25.13 -0.5 31.1 59 -7.6 18.4
05:00 1022 30.18 851 25.13 -0.3 31.5 60 -7.2 19
05:05 1022 30.18 851 25.13 -0.3 31.5 61 -6.9 19.6
05:10 1022 30.18 851 25.13 -0.2 31.6 61 -6.8 19.7
05:15 1022 30.18 851 25.13 -0.2 31.6 61 -6.9 19.6
05:20 1022 30.18 851 25.13 -0.4 31.3 63 -6.6 20.1
05:25 1022 30.18 851 25.13 -0.4 31.2 63 -6.6 20.2
05:30 1022 30.18 851 25.13 -0.6 30.9 65 -6.4 20.6
05:35 1022 30.18 851 25.13 -0.9 30.4 65 -6.6 20.1
05:40 1022 30.18 851 25.13 -1.1 30 66 -6.6 20.1
05:45 1022 30.18 851 25.13 -1.4 29.5 68 -6.5 20.3
05:50 1022 30.18 851 25.13 -1.4 29.4 69 -6.4 20.4
05:55 1021 30.15 851 25.13 -1.4 29.6 68 -6.6 20.1
06:00 1021 30.15 851 25.13 -1.3 29.7 66 -6.8 19.7
06:05 1021 30.15 850 25.1 -1.7 29 68 -6.8 19.7
06:10 1021 30.15 850 25.1 -2.3 27.8 68 -7.4 18.7
06:15 1021 30.15 851 25.13 -1.6 29.1 65 -7.4 18.7
06:20 1022 30.18 851 25.13 -1.2 29.8 65 -7.1 19.3
06:25 1022 30.18 851 25.13 -1.2 29.8 65 -7 19.5
06:30 1022 30.18 851 25.13 -1.2 29.9 65 -6.9 19.6
06:35 1022 30.18 851 25.13 -1.3 29.7 66 -6.8 19.7
06:40 1022 30.18 851 25.13 -1.6 29.1 68 -6.8 19.8
06:45 1022 30.18 851 25.13 -2 28.4 69 -6.9 19.6
06:50 1022 30.18 851 25.13 -2 28.4 69 -6.9 19.6
06:55 1022 30.18 851 25.13 -2 28.3 69 -7 19.5
07:00 1022 30.18 851 25.13 -2 28.4 68 -7 19.4
07:05 1022 30.18 851 25.13 -2 28.4 69 -6.9 19.5
07:10 1022 30.18 851 25.13 -2.3 27.9 70 -7 19.4
07:15 1022 30.18 851 25.13 -2.2 28 69 -7.2 19
07:20 1022 30.18 851 25.13 -2.1 28.3 69 -7 19.4
07:25 1022 30.18 851 25.13 -1.6 29.1 66 -7.2 19
07:30 1022 30.18 851 25.13 -1.2 29.8 65 -7 19.4
07:35 1021 30.15 851 25.13 -1.6 29.2 67 -6.9 19.6
07:40 1021 30.15 851 25.13 -1.8 28.7 67 -7.2 19.1
07:45 1022 30.18 851 25.13 -1.8 28.7 67 -7.2 19
07:50 1022 30.18 851 25.13 -1.8 28.7 67 -7.1 19.1
07:55 1022 30.18 851 25.13 -1.7 28.9 66 -7.2 19
08:00 1022 30.18 851 25.13 -1.6 29.1 67 -6.9 19.5
08:05 1022 30.18 851 25.13 -1.7 29 66 -7.2 19.1
08:10 1022 30.18 851 25.13 -1.5 29.4 66 -7 19.3
08:15 1022 30.18 851 25.13 -1.3 29.6 66 -6.9 19.6
08:20 1022 30.18 851 25.13 -1.5 29.2 68 -6.7 19.9
08:25 1022 30.18 851 25.13 -1.4 29.5 67 -6.8 19.8
08:30 1022 30.18 851 25.13 -0.9 30.4 64 -6.8 19.7
08:35 1022 30.18 851 25.13 -0.6 30.9 64 -6.7 20
08:40 1022 30.18 851 25.13 -1 30.2 66 -6.6 20.1
08:45 1022 30.18 852 25.16 -1.4 29.5 67 -6.8 19.7
08:50 1022 30.18 852 25.16 -1.4 29.5 67 -6.7 19.9
08:55 1022 30.18 852 25.16 -1.3 29.6 67 -6.7 19.9
09:00 1022 30.18 852 25.16 -1.2 29.9 65 -6.9 19.5
09:05 1022 30.18 852 25.16 -0.7 30.8 64 -6.7 20
09:10 1023 30.21 852 25.16 -0.5 31.1 63 -6.6 20.1
09:15 1023 30.21 852 25.16 -0.2 31.7 64 -6.2 20.8
09:20 1023 30.21 852 25.16 0.1 32.2 62 -6.2 20.8
09:25 1023 30.21 852 25.16 -0.1 31.8 63 -6.4 20.5
09:30 1023 30.21 852 25.16 0.1 32.2 61 -6.5 20.3
09:35 1023 30.21 852 25.16 0.3 32.5 62 -6.2 20.8
09:40 1023 30.21 852 25.16 0.5 32.9 61 -6.2 20.8
09:45 1023 30.21 852 25.16 0.7 33.3 63 -5.6 21.8
09:50 1023 30.21 852 25.16 0.5 32.9 63 -5.7 21.7
09:55 1023 30.21 852 25.16 0.4 32.7 64 -5.7 21.8
10:00 1023 30.21 852 25.16 0.4 32.8 62 -6 21.3
10:05 1023 30.21 852 25.16 0.8 33.5 61 -5.9 21.4
10:10 1023 30.21 852 25.16 1.4 34.5 59 -5.9 21.4
10:15 1023 30.21 852 25.16 1.8 35.3 56 -6 21.3
10:20 1023 30.21 852 25.16 2 35.6 55 -6 21.2
10:25 1023 30.21 852 25.16 2.2 36 56 -5.6 21.8
10:30 1023 30.21 852 25.16 2.6 36.6 55 -5.6 21.9
10:35 1023 30.21 852 25.16 2.8 37 54 -5.7 21.8
10:40 1023 30.21 852 25.16 3.3 37.9 53 -5.5 22.2
10:45 1023 30.21 852 25.16 3.2 37.8 52 -5.7 21.8
10:50 1023 30.21 852 25.16 3.3 37.9 53 -5.5 22
10:55 1023 30.21 852 25.16 3 37.4 52 -5.8 21.6
11:00 1023 30.21 852 25.16 3.1 37.6 53 -5.6 21.9
11:05 1023 30.21 852 25.16 3.3 37.9 52 -5.6 21.9
11:10 1023 30.21 852 25.16 3.8 38.9 50 -5.8 21.6
11:15 1023 30.21 852 25.16 4.1 39.4 47 -6.3 20.6
11:20 1023 30.21 852 25.16 4.7 40.4 43 -6.7 20
11:25 1023 30.21 852 25.16 5.1 41.2 43 -6.3 20.6
11:30 1023 30.21 852 25.16 5.6 42 41 -6.7 20
11:35 1023 30.21 852 25.16 5.7 42.2 40 -7 19.4
11:40 1023 30.21 852 25.16 5.3 41.5 43 -6.3 20.7
11:45 1023 30.21 852 25.16 5.6 42 41 -6.8 19.8
11:50 1023 30.21 852 25.16 6.2 43.2 40 -6.4 20.5
11:55 1023 30.21 852 25.16 6.4 43.5 40 -6.4 20.6
12:00 1023 30.21 852 25.16 6.8 44.2 38 -6.4 20.5
12:05 1023 30.21 852 25.16 7 44.6 37 -6.6 20.1
12:10 1023 30.21 852 25.16 7.4 45.2 37 -6.3 20.7
12:15 1023 30.21 852 25.16 7.5 45.5 35 -7 19.3
12:20 1023 30.21 852 25.16 7.4 45.4 36 -6.8 19.8
12:25 1023 30.21 852 25.16 7.3 45.2 36 -6.8 19.8
12:30 1023 30.21 852 25.16 7.3 45.1 38 -6.2 20.8
12:35 1022 30.18 852 25.16 6.9 44.4 38 -6.4 20.5
12:40 1022 30.18 851 25.13 7.2 44.9 35 -7.3 18.8
12:45 1022 30.18 851 25.13 7.6 45.7 36 -6.6 20.1
12:50 1022 30.18 851 25.13 7.4 45.4 34 -7.2 19
12:55 1022 30.18 851 25.13 7 44.5 36 -7 19.4
13:00 1022 30.18 851 25.13 7.2 44.9 35 -7.5 18.6
13:05 1022 30.18 851 25.13 7.5 45.4 33 -7.7 18.1
13:10 1022 30.18 851 25.13 7.8 46.1 31 -8.3 17
13:15 1022 30.18 851 25.13 7.5 45.5 33 -7.7 18.1
13:20 1022 30.18 852 25.16 7.1 44.8 35 -7.5 18.5
13:25 1022 30.18 852 25.16 6.8 44.3 34 -8 17.6
13:30 1022 30.18 851 25.13 7.1 44.7 34 -7.7 18.1
13:35 1022 30.18 851 25.13 7.1 44.7 34 -7.7 18.1
13:40 1022 30.18 851 25.13 6.7 44 37 -7 19.3
13:45 1022 30.18 851 25.13 6.5 43.8 37 -7.2 19.1
13:50 1022 30.18 851 25.13 6.4 43.5 38 -6.8 19.8
13:55 1022 30.18 851 25.13 6.5 43.6 39 -6.4 20.5
14:00 1022 30.18 851 25.13 6.4 43.5 40 -6.2 20.8
14:05 1022 30.18 851 25.13 6.2 43.2 40 -6.5 20.3
14:10 1022 30.18 851 25.13 6 42.8 40 -6.7 20
14:15 1022 30.18 851 25.13 6.1 43 40 -6.5 20.2
14:20 1022 30.18 851 25.13 6.1 43 40 -6.4 20.5
14:25 1022 30.18 851 25.13 6 42.9 37 -7.5 18.6
14:30 1022 30.18 851 25.13 5.6 42.1 39 -7.3 18.9
14:35 1022 30.18 851 25.13 5.6 42.2 38 -7.5 18.4
14:40 1022 30.18 851 25.13 5.7 42.2 42 -6.3 20.7
14:45 1022 30.18 851 25.13 5.6 42.1 41 -6.6 20.1
14:50 1022 30.18 851 25.13 5.9 42.6 40 -6.6 20.1
14:55 1022 30.18 851 25.13 6 42.8 41 -6.4 20.5
15:00 1022 30.18 851 25.13 5.7 42.3 41 -6.6 20.1
15:05 1022 30.18 851 25.13 5.6 42.1 40 -7 19.3
15:10 1021 30.15 851 25.13 5.8 42.4 39 -7.3 18.9
15:15 1021 30.15 851 25.13 5.7 42.3 38 -7.6 18.4
15:20 1021 30.15 851 25.13 5.9 42.6 37 -7.6 18.4
15:25 1021 30.15 850 25.1 6 42.9 34 -8.8 16.2
15:30 1021 30.15 851 25.13 6 42.8 34 -8.5 16.7
15:35 1021 30.15 851 25.13 6 42.8 37 -7.7 18.2
15:40 1022 30.18 851 25.13 5.6 42.1 39 -7.2 19.1
15:45 1021 30.15 851 25.13 5.4 41.7 39 -7.3 18.8
15:50 1021 30.15 851 25.13 5.3 41.5 40 -7.3 18.8
15:55 1021 30.15 851 25.13 5.2 41.4 38 -8 17.7
16:00 1021 30.15 851 25.13 5.2 41.4 37 -8.1 17.4
16:05 1021 30.15 851 25.13 5.2 41.4 38 -8 17.7
16:10 1021 30.15 851 25.13 5.2 41.3 38 -7.9 17.8
16:15 1021 30.15 851 25.13 5.2 41.4 37 -8.2 17.2
16:20 1021 30.15 851 25.13 5.3 41.5 34 -9.5 14.9
16:25 1021 30.15 850 25.1 5.5 41.8 37 -8.2 17.3
16:30 1021 30.15 850 25.1 5.3 41.5 39 -7.7 18.1
16:35 1021 30.15 850 25.1 5.1 41.1 41 -7.1 19.2
16:40 1021 30.15 850 25.1 5 41 42 -7 19.5
16:45 1021 30.15 850 25.1 4.8 40.7 44 -6.4 20.5
16:50 1021 30.15 850 25.1 4.7 40.5 46 -6 21.1
16:55 1021 30.15 850 25.1 4.7 40.4 47 -5.8 21.6
17:00 1021 30.15 850 25.1 4.5 40.2 47 -5.8 21.5
17:05 1021 30.15 850 25.1 4.5 40 46 -6.1 20.9
17:10 1021 30.15 850 25.1 4.5 40.1 47 -5.7 21.7
17:15 1021 30.15 850 25.1 4.4 39.9 48 -5.7 21.8
17:20 1021 30.15 850 25.1 4.3 39.7 47 -6 21.1
17:25 1021 30.15 850 25.1 4.3 39.8 46 -6.2 20.9
17:30 1021 30.15 850 25.1 4.4 40 46 -6.1 21.1
17:35 1021 30.15 850 25.1 4.6 40.3 45 -6.4 20.4
17:40 1021 30.15 850 25.1 4.5 40.1 46 -6.1 21
17:45 1021 30.15 850 25.1 4.3 39.7 47 -6 21.2
17:50 1021 30.15 850 25.1 4 39.1 47 -6.2 20.8
17:55 1021 30.15 850 25.1 3.9 39.1 47 -6.3 20.7
18:00 1021 30.15 850 25.1 4 39.2 48 -6.1 21
18:05 1021 30.15 850 25.1 3.9 39 47 -6.3 20.7
18:10 1021 30.15 850 25.1 4 39.2 48 -6.2 20.9
18:15 1021 30.15 850 25.1 3.8 38.9 49 -5.9 21.3
18:20 1021 30.15 850 25.1 3.6 38.6 49 -6.2 20.8
18:25 1021 30.15 850 25.1 3.7 38.7 45 -7 19.4
18:30 1021 30.15 850 25.1 4 39.1 46 -6.8 19.8
18:35 1021 30.15 850 25.1 4 39.1 44 -7.1 19.2
18:40 1021 30.15 850 25.1 4.1 39.3 46 -6.6 20.1
18:45 1021 30.15 850 25.1 4.1 39.4 45 -6.9 19.6
18:50 1021 30.15 850 25.1 4 39.2 42 -7.7 18.1
18:55 1021 30.15 851 25.13 4 39.3 40 -8.5 16.7
19:00 1021 30.15 851 25.13 4.3 39.7 42 -7.4 18.7
19:05 1021 30.15 851 25.13 4.3 39.7 38 -8.9 16
19:10 1021 30.15 851 25.13 4.5 40.2 39 -8.4 17
19:15 1021 30.15 851 25.13 4.4 40 39 -8.5 16.7
19:20 1021 30.15 850 25.1 4.4 39.9 38 -8.8 16.1
19:25 1021 30.15 850 25.1 4.5 40.1 37 -9.1 15.7
19:30 1021 30.15 850 25.1 4.4 39.9 37 -9 15.8
19:35 1021 30.15 850 25.1 4.3 39.7 38 -8.7 16.3
19:40 1021 30.15 851 25.13 4.6 40.2 34 -10 14
19:45 1022 30.18 851 25.13 4.7 40.5 37 -8.8 16.2
19:50 1022 30.18 851 25.13 4.7 40.5 34 -10 14
19:55 1022 30.18 851 25.13 5.2 41.3 34 -9.6 14.7
20:00 1022 30.18 851 25.13 5.6 42 31 -10.3 13.5
20:05 1022 30.18 851 25.13 6.1 43 34 -8.5 16.7
20:10 1022 30.18 852 25.16 6.1 43 36 -8 17.5
20:15 1022 30.18 852 25.16 6.3 43.3 32 -9.1 15.7
20:20 1022 30.18 851 25.13 5.8 42.5 41 -6.3 20.7
20:25 1022 30.18 851 25.13 5.2 41.3 42 -6.6 20.1
20:30 1022 30.18 851 25.13 4.7 40.4 43 -6.8 19.8
20:35 1022 30.18 851 25.13 4.9 40.9 37 -8.6 16.4
20:40 1022 30.18 851 25.13 5 41.1 39 -7.9 17.8
20:45 1022 30.18 851 25.13 5 41 36 -8.7 16.3
20:50 1022 30.18 851 25.13 5.4 41.7 35 -9 15.7
20:55 1022 30.18 851 25.13 5.7 42.2 34 -9.2 15.5
21:00 1022 30.18 851 25.13 5.8 42.5 32 -9.7 14.6
21:05 1021 30.15 851 25.13 6.2 43.1 32 -9.4 15.1
21:10 1021 30.15 850 25.1 6.2 43.1 32 -9.3 15.2
21:15 1021 30.15 850 25.1 6.2 43.2 32 -9.1 15.6
21:20 1021 30.15 850 25.1 6.2 43.2 31 -9.6 14.7
21:25 1021 30.15 850 25.1 6.4 43.5 30 -9.8 14.4
21:30 1021 30.15 850 25.1 6.5 43.7 30 -9.7 14.5
21:35 1021 30.15 850 25.1 6.5 43.8 31 -9.4 15.1
21:40 1021 30.15 850 25.1 6.5 43.8 31 -9.5 14.8
21:45 1021 30.15 850 25.1 6.8 44.2 30 -9.6 14.6
21:50 1020 30.12 850 25.1 7.1 44.8 33 -8.2 17.3
21:55 1020 30.12 850 25.1 7.8 46.1 30 -8.7 16.4
22:00 1020 30.12 849 25.07 7.9 46.3 32 -7.7 18.1
22:05 1020 30.12 849 25.07 8.2 46.7 31 -7.7 18.1
22:10 1020 30.12 849 25.07 8.6 47.4 31 -7.5 18.5
22:15 1020 30.12 849 25.07 8.6 47.4 33 -6.9 19.6
22:20 1020 30.12 849 25.07 8.9 48 32 -6.9 19.6
22:25 1020 30.12 849 25.07 8.9 48 34 -6.2 20.9
22:30 1020 30.12 849 25.07 9 48.3 32 -6.7 19.9
22:35 1020 30.12 849 25.07 8.3 46.9 34 -6.7 19.9
22:40 1020 30.12 849 25.07 7.9 46.2 35 -6.8 19.8
22:45 1020 30.12 849 25.07 7.7 45.9 36 -6.5 20.3
22:50 1020 30.12 850 25.1 7.8 46 38 -5.8 21.6
22:55 1020 30.12 850 25.1 8.1 46.5 38 -5.3 22.4
23:00 1020 30.12 849 25.07 8 46.3 37 -5.9 21.3
23:05 1020 30.12 849 25.07 7 44.7 41 -5.4 22.3
23:10 1020 30.12 849 25.07 5.9 42.6 45 -5.3 22.5
23:15 1020 30.12 849 25.07 5.2 41.4 49 -4.6 23.8
23:20 1020 30.12 849 25.07 4.6 40.3 53 -4.3 24.3
23:25 1020 30.12 849 25.07 4.1 39.4 54 -4.3 24.3
23:30 1020 30.12 849 25.07 3.7 38.7 56 -4.2 24.4
23:35 1020 30.12 850 25.1 3.5 38.3 57 -4.3 24.3
23:40 1020 30.12 850 25.1 3.3 38 58 -4.2 24.5
23:45 1020 30.12 850 25.1 3.1 37.7 59 -4.1 24.6
23:50 1020 30.12 850 25.1 3.1 37.5 57 -4.6 23.6
23:55 1020 30.12 850 25.1 3 37.4 64 -3.1 26.4
24:00 1020 30.12 850 25.1 2.3 36.2 66 -3.4 25.8